M I D A S
Marine Information and Data Acquisition System
Tripno 367 of the Zeeleeuw from 2002-12-11 07:54:24 to 2002-12-11 13:24:04
Back to CruiseResearch ActivitiesStationsMapUnderway DataData graphs

EquipmentUnitsComments
TimeDGPSUTC
LatitudeDGPSDM.mWGS84
LongitudeDGPSDM.mWGS84
SpeedMeteo Stationm/sRelative wind speed
DirectionMeteo StationdegRelative wind direction
TemperatureMeteo Stationdeg CelciusAir temperature
PressureMeteo StationPaAtmospheric pressure
HumidityMeteo Station%Relative humidity
Missing or incorrect values are displayed as -999
Metereological data collected by the RV Zeeleeuw from 2002-12-11 07:54:24 to 2002-12-11 13:24:04
                                                                                    Next 1000 lines
Time Latitude Longitude Speed Direction Temperature Pressure Humidity
2002-12-11 07:54:33 51°13.589 2°56.13 5.5 292 -5.7 102100 78
2002-12-11 07:54:36 51°13.589 2°56.13 6.4 273 -5.7 102100 78
2002-12-11 07:54:43 51°13.589 2°56.13 5.1 280 -5.7 102100 78
2002-12-11 07:54:48 51°13.589 2°56.13 6.1 270 -5.7 102100 77
2002-12-11 07:54:53 51°13.589 2°56.13 5.7 274 -5.7 102100 77
2002-12-11 07:54:58 51°13.589 2°56.13 5.3 277 -5.6 102090 78
2002-12-11 07:55:03 51°13.588 2°56.13 4.2 272 -5.6 102090 78
2002-12-11 07:55:08 51°13.588 2°56.13 4.5 264 -5.7 102100 78
2002-12-11 07:55:13 51°13.588 2°56.13 6.7 272 -5.7 102100 78
2002-12-11 07:55:17 51°13.588 2°56.129 6.1 268 -5.7 102100 78
2002-12-11 07:55:23 51°13.588 2°56.129 7.5 270 -5.7 102100 78
2002-12-11 07:55:27 51°13.588 2°56.129 6.4 257 -5.6 102100 78
2002-12-11 07:55:32 51°13.588 2°56.129 5.6 275 -5.6 102100 78
2002-12-11 07:55:37 51°13.588 2°56.129 5.8 275 -5.7 102100 78
2002-12-11 07:55:43 51°13.588 2°56.128 7.5 267 -5.7 102100 78
2002-12-11 07:55:47 51°13.588 2°56.128 6.1 263 -5.6 102110 77
2002-12-11 07:55:52 51°13.588 2°56.128 4.2 283 -5.6 102110 77
2002-12-11 07:55:56 51°13.587 2°56.128 5.5 284 -5.6 102100 77
2002-12-11 07:56:02 51°13.587 2°56.128 6.5 296 -5.6 102100 77
2002-12-11 07:56:07 51°13.587 2°56.127 4.8 254 -5.7 102110 77
2002-12-11 07:56:12 51°13.587 2°56.128 5.9 271 -5.7 102110 77
2002-12-11 07:56:16 51°13.587 2°56.128 4.4 278 -5.6 102100 77
2002-12-11 07:56:22 51°13.587 2°56.128 6.3 271 -5.6 102100 77
2002-12-11 07:56:28 51°13.586 2°56.128 7.2 279 -5.7 102100 78
2002-12-11 07:56:32 51°13.585 2°56.129 4.1 293 -5.7 102100 78
2002-12-11 07:56:37 51°13.584 2°56.131 5.2 269 -5.6 102100 78
2002-12-11 07:56:42 51°13.582 2°56.133 6.7 266 -5.6 102100 78
2002-12-11 07:56:47 51°13.58 2°56.136 7 271 -5.7 102110 78
2002-12-11 07:56:53 51°13.576 2°56.14 8.4 269 -5.7 102110 78
2002-12-11 07:56:58 51°13.573 2°56.145 8.5 266 -5.6 102090 78
2002-12-11 07:57:04 51°13.569 2°56.15 8.9 267 -5.6 102090 78
2002-12-11 07:57:08 51°13.566 2°56.153 7.2 258 -5.6 102090 78
2002-12-11 07:57:12 51°13.563 2°56.157 5.6 272 -5.6 102090 78
2002-12-11 07:57:17 51°13.558 2°56.161 9 261 -5.6 102080 78
2002-12-11 07:57:22 51°13.554 2°56.166 8 273 -5.6 102080 78
2002-12-11 07:57:27 51°13.55 2°56.171 8.8 273 -5.6 102080 78
2002-12-11 07:57:32 51°13.546 2°56.176 7.8 271 -5.6 102080 78
2002-12-11 07:57:37 51°13.543 2°56.182 6.3 270 -5.6 102090 78
2002-12-11 07:57:41 51°13.54 2°56.186 6.2 257 -5.6 102090 78
2002-12-11 07:57:48 51°13.536 2°56.195 6.9 267 -5.6 102080 78
2002-12-11 07:57:53 51°13.534 2°56.2 7.4 248 -5.6 102080 78
2002-12-11 07:57:57 51°13.532 2°56.205 5.8 243 -5.6 102080 78
2002-12-11 07:58:02 51°13.53 2°56.211 5.6 242 -5.6 102080 78
2002-12-11 07:58:07 51°13.529 2°56.218 6.7 239 -5.6 102090 79
2002-12-11 07:58:12 51°13.529 2°56.224 6.7 239 -5.6 102090 79
2002-12-11 07:58:17 51°13.528 2°56.23 6.7 225 -5.6 102090 79
2002-12-11 07:58:22 51°13.529 2°56.236 7.2 232 -5.6 102090 79
2002-12-11 07:58:27 51°13.529 2°56.241 7.3 214 -5.6 102090 80
2002-12-11 07:58:33 51°13.53 2°56.247 6 223 -5.6 102090 80
2002-12-11 07:58:38 51°13.53 2°56.252 6.8 229 -5.5 102090 80
2002-12-11 07:58:42 51°13.531 2°56.256 8.2 217 -5.5 102090 80
2002-12-11 07:58:48 51°13.532 2°56.261 8.5 217 -5.5 102100 80
2002-12-11 07:58:53 51°13.533 2°56.265 6.4 222 -5.5 102100 80
2002-12-11 07:58:57 51°13.534 2°56.268 6.7 221 -5.5 102090 80
2002-12-11 07:59:02 51°13.535 2°56.271 6.2 212 -5.5 102090 80
2002-12-11 07:59:07 51°13.536 2°56.273 6.5 205 -5.5 102100 80
2002-12-11 07:59:12 51°13.537 2°56.275 5.7 206 -5.5 102100 80
2002-12-11 07:59:17 51°13.538 2°56.276 6 195 -5.5 102100 80
2002-12-11 07:59:22 51°13.538 2°56.277 5.2 201 -5.5 102100 80
2002-12-11 07:59:27 51°13.539 2°56.277 6.1 189 -5.5 102100 80
2002-12-11 07:59:33 51°13.539 2°56.276 5.3 209 -5.5 102100 80
2002-12-11 07:59:36 51°13.539 2°56.275 4 191 -5.5 102100 79
2002-12-11 07:59:42 51°13.538 2°56.274 4.4 180 -5.5 102100 79
2002-12-11 07:59:47 51°13.538 2°56.272 3.9 174 -5.5 102100 79
2002-12-11 07:59:52 51°13.537 2°56.27 4.2 175 -5.5 102100 79
2002-12-11 07:59:58 51°13.536 2°56.267 4.3 190 -5.5 102100 78
2002-12-11 08:00:03 51°13.535 2°56.264 4.1 182 -5.5 102100 78
2002-12-11 08:00:08 51°13.534 2°56.261 4.5 159 -5.5 102100 79
2002-12-11 08:00:13 51°13.533 2°56.259 4.4 176 -5.5 102100 79
2002-12-11 08:00:18 51°13.531 2°56.256 4.3 175 -5.5 102100 79
2002-12-11 08:00:23 51°13.53 2°56.254 6.1 169 -5.5 102100 79
2002-12-11 08:00:28 51°13.529 2°56.252 7 167 -5.5 102100 80
2002-12-11 08:00:32 51°13.529 2°56.25 7 159 -5.5 102100 80
2002-12-11 08:00:38 51°13.529 2°56.249 6.9 159 -5.5 102100 80
2002-12-11 08:00:43 51°13.529 2°56.249 6.2 156 -5.5 102100 80
2002-12-11 08:00:48 51°13.53 2°56.248 4.8 158 -5.4 102100 80
2002-12-11 08:00:52 51°13.53 2°56.248 5.6 158 -5.4 102100 80
2002-12-11 08:00:58 51°13.532 2°56.248 5 158 -5.4 102090 80
2002-12-11 08:01:03 51°13.533 2°56.248 5.5 150 -5.4 102090 80
2002-12-11 08:01:08 51°13.534 2°56.248 5.2 149 -5.5 102090 79
2002-12-11 08:01:12 51°13.535 2°56.248 4.7 147 -5.5 102090 79
2002-12-11 08:01:18 51°13.537 2°56.247 5.6 146 -5.4 102100 79
2002-12-11 08:01:22 51°13.537 2°56.247 5.1 122 -5.4 102100 79
2002-12-11 08:01:28 51°13.538 2°56.247 4.9 132 -5.4 102100 79
2002-12-11 08:01:33 51°13.538 2°56.246 5.6 144 -5.4 102100 79
2002-12-11 08:01:36 51°13.538 2°56.246 5.1 149 -5.4 102100 80
2002-12-11 08:01:42 51°13.538 2°56.246 4.4 127 -5.4 102100 80
2002-12-11 08:01:47 51°13.537 2°56.245 4.4 118 -5.4 102100 80
2002-12-11 08:01:52 51°13.536 2°56.245 4.6 117 -5.4 102100 80
2002-12-11 08:01:58 51°13.534 2°56.245 4.8 122 -5.4 102100 80
2002-12-11 08:02:02 51°13.532 2°56.245 5.4 121 -5.4 102100 80
2002-12-11 08:02:08 51°13.53 2°56.244 5.1 115 -5.4 102100 80
2002-12-11 08:02:13 51°13.528 2°56.245 6.1 126 -5.4 102100 80
2002-12-11 08:02:18 51°13.525 2°56.245 5.6 106 -5.4 102100 80
2002-12-11 08:02:23 51°13.523 2°56.246 6.1 111 -5.4 102100 80
2002-12-11 08:02:28 51°13.521 2°56.246 5 138 -5.4 102100 80
2002-12-11 08:02:32 51°13.519 2°56.246 4.9 114 -5.4 102100 80
2002-12-11 08:02:38 51°13.517 2°56.246 6.4 116 -5.4 102100 80
2002-12-11 08:02:43 51°13.515 2°56.247 6 131 -5.4 102100 80
2002-12-11 08:02:48 51°13.513 2°56.246 6.6 122 -5.3 102100 80
2002-12-11 08:02:53 51°13.512 2°56.246 6.6 123 -5.3 102100 80
2002-12-11 08:02:58 51°13.511 2°56.246 6.7 115 -5.3 102100 80
2002-12-11 08:03:02 51°13.51 2°56.246 6.2 116 -5.3 102100 80
2002-12-11 08:03:07 51°13.51 2°56.245 6.1 116 -5.3 102100 80
2002-12-11 08:03:10 51°13.509 2°56.245 6 127 -5.3 102100 80
2002-12-11 08:03:17 51°13.509 2°56.244 5.6 109 -5.3 102100 80
2002-12-11 08:03:20 51°13.51 2°56.243 4.9 108 -5.3 102100 80
2002-12-11 08:03:27 51°13.51 2°56.241 5.1 129 -5.3 102100 80
2002-12-11 08:03:32 51°13.511 2°56.239 4.7 104 -5.3 102100 80
2002-12-11 08:03:37 51°13.512 2°56.236 4.5 91 -5.3 102100 80
2002-12-11 08:03:41 51°13.514 2°56.235 5 94 -5.3 102100 80
2002-12-11 08:03:48 51°13.516 2°56.23 4.5 109 -5.3 102100 80
2002-12-11 08:03:52 51°13.517 2°56.227 4 109 -5.3 102100 80
2002-12-11 08:03:56 51°13.519 2°56.224 3.2 99 -5.3 102090 80
2002-12-11 08:04:02 51°13.521 2°56.218 3.5 89 -5.3 102090 80
2002-12-11 08:04:07 51°13.524 2°56.213 3.9 103 -5.3 102100 80
2002-12-11 08:04:12 51°13.526 2°56.208 3.2 99 -5.3 102100 80
2002-12-11 08:04:16 51°13.529 2°56.203 4.2 92 -5.3 102100 80
2002-12-11 08:04:21 51°13.532 2°56.196 3.7 75 -5.3 102100 80
2002-12-11 08:04:27 51°13.536 2°56.187 3.3 108 -5.3 102100 80
2002-12-11 08:04:32 51°13.539 2°56.18 4 96 -5.3 102100 80
2002-12-11 08:04:37 51°13.543 2°56.172 4.7 92 -5.3 102100 80
2002-12-11 08:04:42 51°13.548 2°56.163 5 89 -5.3 102100 80
2002-12-11 08:04:47 51°13.552 2°56.154 4.9 119 -5.3 102100 80
2002-12-11 08:04:52 51°13.557 2°56.144 4.4 98 -5.3 102100 80
2002-12-11 08:04:56 51°13.56 2°56.137 3.7 98 -5.3 102100 81
2002-12-11 08:05:02 51°13.566 2°56.125 3.9 92 -5.3 102100 81
2002-12-11 08:05:06 51°13.569 2°56.117 3.6 81 -5.3 102100 81
2002-12-11 08:05:12 51°13.575 2°56.105 3.3 105 -5.3 102100 81
2002-12-11 08:05:16 51°13.578 2°56.097 3.9 80 -5.3 102100 80
2002-12-11 08:05:22 51°13.584 2°56.085 3.2 151 -5.3 102100 80
2002-12-11 08:05:28 51°13.589 2°56.073 2.8 150 -5.3 102100 80
2002-12-11 08:05:32 51°13.593 2°56.065 3.7 119 -5.3 102100 80
2002-12-11 08:05:37 51°13.597 2°56.055 4.2 95 -5.3 102100 80
2002-12-11 08:05:40 51°13.6 2°56.049 4.4 104 -5.3 102100 80
2002-12-11 08:05:46 51°13.605 2°56.036 3.5 119 -5.3 102100 80
2002-12-11 08:05:52 51°13.611 2°56.024 3.2 147 -5.3 102100 80
2002-12-11 08:05:57 51°13.615 2°56.013 2.2 119 -5.3 102100 80
2002-12-11 08:06:03 51°13.62 2°56 4.5 96 -5.3 102100 80
2002-12-11 08:06:07 51°13.624 2°55.992 5.6 108 -5.3 102110 79
2002-12-11 08:06:12 51°13.628 2°55.98 4.8 103 -5.3 102110 79
2002-12-11 08:06:18 51°13.634 2°55.968 3.6 100 -5.3 102100 78
2002-12-11 08:06:22 51°13.637 2°55.959 3.6 97 -5.3 102100 78
2002-12-11 08:06:24 51°13.639 2°55.955 2.9 90 -5.3 102100 78
2002-12-11 08:06:31 51°13.645 2°55.94 2.5 83 -5.3 102100 78
2002-12-11 08:06:36 51°13.65 2°55.929 2.5 83 -5.3 102100 77
2002-12-11 08:06:42 51°13.655 2°55.915 2.1 86 -5.3 102100 77
2002-12-11 08:06:47 51°13.659 2°55.904 2.7 122 -5.4 102100 77
2002-12-11 08:06:52 51°13.663 2°55.892 2.9 108 -5.4 102100 77
2002-12-11 08:06:57 51°13.668 2°55.881 3.5 94 -5.4 102100 77
2002-12-11 08:07:02 51°13.672 2°55.869 3.4 95 -5.4 102100 77
2002-12-11 08:07:08 51°13.677 2°55.856 3.3 124 -5.4 102100 77
2002-12-11 08:07:12 51°13.681 2°55.847 3.1 124 -5.4 102100 77
2002-12-11 08:07:17 51°13.685 2°55.836 2.2 131 -5.4 102110 77
2002-12-11 08:07:22 51°13.69 2°55.825 3.1 113 -5.4 102110 77
2002-12-11 08:07:28 51°13.695 2°55.812 3.5 157 -5.4 102100 77
2002-12-11 08:07:33 51°13.7 2°55.801 3.3 97 -5.4 102100 77
2002-12-11 08:07:37 51°13.704 2°55.792 2.8 97 -5.4 102100 77
2002-12-11 08:07:41 51°13.708 2°55.783 3.4 113 -5.4 102100 77
2002-12-11 08:07:47 51°13.714 2°55.77 2.1 107 -5.4 102100 77
2002-12-11 08:07:52 51°13.72 2°55.759 1.8 129 -5.4 102100 77
2002-12-11 08:07:57 51°13.725 2°55.748 3 113 -5.4 102100 77
2002-12-11 08:08:02 51°13.731 2°55.738 2.8 110 -5.4 102100 77
2002-12-11 08:08:06 51°13.736 2°55.73 5.7 100 -5.4 102100 77
2002-12-11 08:08:12 51°13.743 2°55.718 4.4 125 -5.4 102100 77
2002-12-11 08:08:17 51°13.75 2°55.709 3.3 177 -5.4 102100 77
2002-12-11 08:08:21 51°13.755 2°55.702 2.8 163 -5.4 102100 77
2002-12-11 08:08:27 51°13.764 2°55.693 3.5 143 -5.4 102110 77
2002-12-11 08:08:32 51°13.771 2°55.685 2.9 144 -5.4 102110 77
2002-12-11 08:08:37 51°13.779 2°55.679 4.2 143 -5.4 102110 77
2002-12-11 08:08:42 51°13.786 2°55.672 5.7 138 -5.4 102110 77
2002-12-11 08:08:47 51°13.794 2°55.665 4 128 -5.4 102100 77
2002-12-11 08:08:52 51°13.802 2°55.659 4.5 162 -5.4 102100 77
2002-12-11 08:08:57 51°13.81 2°55.653 4.4 180 -5.4 102110 77
2002-12-11 08:09:02 51°13.818 2°55.647 4.1 149 -5.4 102110 77
2002-12-11 08:09:07 51°13.826 2°55.642 3.2 148 -5.4 102100 77
2002-12-11 08:09:12 51°13.834 2°55.636 3.8 188 -5.4 102100 77
2002-12-11 08:09:16 51°13.84 2°55.632 2.6 189 -5.5 102110 77
2002-12-11 08:09:22 51°13.85 2°55.626 1.7 155 -5.5 102110 77
2002-12-11 08:09:27 51°13.859 2°55.621 3.4 177 -5.5 102100 76
2002-12-11 08:09:32 51°13.867 2°55.616 4.2 158 -5.5 102100 76
2002-12-11 08:09:37 51°13.876 2°55.611 4.4 149 -5.4 102100 77
2002-12-11 08:09:41 51°13.883 2°55.607 5.8 155 -5.4 102100 77
2002-12-11 08:09:48 51°13.894 2°55.599 6 137 -5.4 102100 77
2002-12-11 08:09:53 51°13.903 2°55.594 4.8 153 -5.4 102100 77
2002-12-11 08:09:58 51°13.911 2°55.589 4.9 161 -5.4 102100 77
2002-12-11 08:10:03 51°13.92 2°55.584 5.2 173 -5.4 102100 77
2002-12-11 08:10:06 51°13.925 2°55.581 5.7 160 -5.4 102100 77
2002-12-11 08:10:12 51°13.935 2°55.575 5 150 -5.4 102100 77
2002-12-11 08:10:16 51°13.942 2°55.57 5.8 152 -5.4 102100 77
2002-12-11 08:10:22 51°13.952 2°55.563 5.8 152 -5.4 102100 77
2002-12-11 08:10:26 51°13.959 2°55.558 6.2 138 -5.4 102100 78
2002-12-11 08:10:32 51°13.968 2°55.55 5.5 163 -5.4 102100 78
2002-12-11 08:10:36 51°13.974 2°55.545 6.3 143 -5.4 102100 77
2002-12-11 08:10:42 51°13.984 2°55.537 4.7 131 -5.4 102100 77
2002-12-11 08:10:47 51°13.992 2°55.53 5.6 162 -5.4 102100 77
2002-12-11 08:10:52 51°14 2°55.523 6.5 167 -5.4 102100 77
2002-12-11 08:10:57 51°14.008 2°55.516 6.1 155 -5.5 102100 77
2002-12-11 08:11:02 51°14.016 2°55.509 5.2 168 -5.5 102100 77
2002-12-11 08:11:06 51°14.022 2°55.503 3.8 158 -5.5 102100 76
2002-12-11 08:11:12 51°14.032 2°55.494 4.9 153 -5.5 102100 76
2002-12-11 08:11:17 51°14.04 2°55.486 4.1 173 -5.5 102100 77
2002-12-11 08:11:22 51°14.049 2°55.479 3.9 159 -5.5 102100 77
2002-12-11 08:11:27 51°14.057 2°55.471 4.6 129 -5.5 102100 77
2002-12-11 08:11:32 51°14.065 2°55.463 5.7 127 -5.5 102100 77
2002-12-11 08:11:36 51°14.072 2°55.457 4.4 128 -5.5 102090 77
2002-12-11 08:11:42 51°14.082 2°55.447 4.5 158 -5.5 102090 77
2002-12-11 08:11:48 51°14.093 2°55.438 4.4 161 -5.5 102100 78
2002-12-11 08:11:53 51°14.103 2°55.431 5.5 162 -5.5 102100 78
2002-12-11 08:11:57 51°14.111 2°55.425 4.4 139 -5.5 102100 78
2002-12-11 08:12:02 51°14.121 2°55.417 5 158 -5.5 102100 78
2002-12-11 08:12:07 51°14.132 2°55.408 5.5 185 -5.5 102100 78
2002-12-11 08:12:10 51°14.139 2°55.403 4.1 169 -5.5 102100 78
2002-12-11 08:12:16 51°14.152 2°55.392 3.9 145 -5.4 102100 78
2002-12-11 08:12:22 51°14.165 2°55.38 5.3 158 -5.4 102100 78
2002-12-11 08:12:28 51°14.178 2°55.367 5.5 162 -5.4 102090 78
2002-12-11 08:12:32 51°14.187 2°55.358 5.8 162 -5.4 102090 78
2002-12-11 08:12:37 51°14.199 2°55.346 5.2 152 -5.4 102090 78
2002-12-11 08:12:42 51°14.209 2°55.332 5 175 -5.4 102090 78
2002-12-11 08:12:46 51°14.217 2°55.321 3.9 164 -5.5 102090 78
2002-12-11 08:12:52 51°14.23 2°55.303 4.8 161 -5.5 102090 78
2002-12-11 08:12:57 51°14.24 2°55.287 4.5 132 -5.5 102090 77
2002-12-11 08:13:01 51°14.248 2°55.275 5 159 -5.5 102090 77
2002-12-11 08:13:06 51°14.258 2°55.259 5.7 160 -5.4 102100 78
2002-12-11 08:13:12 51°14.269 2°55.238 4.6 172 -5.4 102100 78
2002-12-11 08:13:17 51°14.279 2°55.221 4.7 154 -5.5 102090 78
2002-12-11 08:13:21 51°14.286 2°55.207 5.2 152 -5.5 102090 78
2002-12-11 08:13:27 51°14.297 2°55.185 4.7 149 -5.5 102100 78
2002-12-11 08:13:32 51°14.306 2°55.167 3 150 -5.5 102100 78
2002-12-11 08:13:37 51°14.315 2°55.149 3 174 -5.5 102100 78
2002-12-11 08:13:42 51°14.324 2°55.131 2.2 158 -5.5 102100 78
2002-12-11 08:13:47 51°14.333 2°55.112 3.9 197 -5.5 102100 79
2002-12-11 08:13:52 51°14.342 2°55.093 3.8 153 -5.5 102100 79
2002-12-11 08:13:57 51°14.351 2°55.073 5 167 -5.5 102090 79
2002-12-11 08:14:02 51°14.36 2°55.052 5.1 179 -5.5 102090 79
2002-12-11 08:14:07 51°14.369 2°55.032 4.9 190 -5.4 102090 79
2002-12-11 08:14:12 51°14.379 2°55.011 5.7 156 -5.4 102090 79
2002-12-11 08:14:16 51°14.388 2°54.995 6.8 165 -5.4 102090 79
2002-12-11 08:14:22 51°14.403 2°54.973 9.2 169 -5.4 102090 79
2002-12-11 08:14:28 51°14.418 2°54.953 8.5 168 -5.4 102100 79
2002-12-11 08:14:32 51°14.43 2°54.941 9.1 170 -5.4 102100 79
2002-12-11 08:14:37 51°14.444 2°54.925 8.2 168 -5.4 102100 79
2002-12-11 08:14:40 51°14.453 2°54.916 9.3 171 -5.4 102100 79
2002-12-11 08:14:46 51°14.47 2°54.897 8.4 157 -5.4 102090 80
2002-12-11 08:14:56 51°14.5 2°54.866 7.4 160 -5.3 102070 80
2002-12-11 08:15:02 51°14.519 2°54.847 8 162 -5.3 102070 80
2002-12-11 08:15:08 51°14.537 2°54.828 8.5 157 -5.3 102080 80
2002-12-11 08:15:13 51°14.552 2°54.812 8.6 157 -5.3 102080 80
2002-12-11 08:15:18 51°14.567 2°54.797 7.7 156 -5.3 102080 80
2002-12-11 08:15:23 51°14.582 2°54.782 8.3 159 -5.3 102080 80
2002-12-11 08:15:28 51°14.598 2°54.766 7.4 161 -5.3 102080 80
2002-12-11 08:15:32 51°14.61 2°54.753 8.1 165 -5.3 102080 80
2002-12-11 08:15:36 51°14.622 2°54.741 9.4 172 -5.3 102070 80
2002-12-11 08:15:41 51°14.637 2°54.725 9.2 158 -5.3 102070 80
2002-12-11 08:15:48 51°14.659 2°54.704 9.6 160 -5.2 102080 80
2002-12-11 08:15:53 51°14.674 2°54.689 9.2 161 -5.2 102080 80
2002-12-11 08:15:58 51°14.688 2°54.673 9.1 160 -5.2 102080 80
2002-12-11 08:16:03 51°14.704 2°54.657 7.7 154 -5.2 102080 80
2002-12-11 08:16:08 51°14.72 2°54.642 8.1 168 -5.2 102080 80
2002-12-11 08:16:12 51°14.732 2°54.63 10.1 164 -5.2 102080 80
2002-12-11 08:16:18 51°14.75 2°54.612 10.1 168 -5.2 102100 80
2002-12-11 08:16:23 51°14.766 2°54.596 9.6 174 -5.2 102100 80
2002-12-11 08:16:28 51°14.782 2°54.58 8.9 158 -5.2 102070 79
2002-12-11 08:16:32 51°14.794 2°54.568 10.5 154 -5.2 102070 79
2002-12-11 08:16:38 51°14.813 2°54.549 9.9 172 -5.2 102080 80
2002-12-11 08:16:41 51°14.823 2°54.54 10.2 158 -5.2 102080 80
2002-12-11 08:16:48 51°14.846 2°54.518 11.4 147 -5.1 102070 80
2002-12-11 08:16:53 51°14.862 2°54.502 10.3 150 -5.1 102070 80
2002-12-11 08:16:58 51°14.878 2°54.487 9.6 153 -5.1 102080 80
2002-12-11 08:17:04 51°14.897 2°54.468 8.8 150 -5.1 102080 80
2002-12-11 08:17:08 51°14.91 2°54.455 9.6 158 -5.1 102070 81
2002-12-11 08:17:13 51°14.926 2°54.439 7.6 162 -5.1 102070 81
2002-12-11 08:17:18 51°14.942 2°54.423 7.2 155 -5 102070 80
2002-12-11 08:17:24 51°14.961 2°54.404 9 152 -5 102070 80
2002-12-11 08:17:28 51°14.974 2°54.392 9.4 153 -5 102080 80
2002-12-11 08:17:33 51°14.99 2°54.376 10.2 171 -5 102080 80
2002-12-11 08:17:38 51°15.006 2°54.361 12.1 162 -5 102070 81
2002-12-11 08:17:43 51°15.022 2°54.345 9.8 158 -5 102070 81
2002-12-11 08:17:48 51°15.038 2°54.33 10.8 156 -4.9 102090 81
2002-12-11 08:17:52 51°15.051 2°54.317 10.3 149 -4.9 102090 81
2002-12-11 08:17:58 51°15.07 2°54.298 9 150 -4.9 102070 81
2002-12-11 08:18:03 51°15.086 2°54.282 10.1 166 -4.9 102070 81
2002-12-11 08:18:08 51°15.102 2°54.266 9.7 157 -4.9 102070 81
2002-12-11 08:18:13 51°15.118 2°54.25 9.3 167 -4.9 102070 81
2002-12-11 08:18:18 51°15.134 2°54.233 10 153 -4.9 102080 80
2002-12-11 08:18:24 51°15.153 2°54.213 10.9 148 -4.9 102080 80
2002-12-11 08:18:28 51°15.166 2°54.2 9.9 151 -4.9 102080 80
2002-12-11 08:18:32 51°15.179 2°54.187 8.8 151 -4.9 102080 80
2002-12-11 08:18:38 51°15.198 2°54.168 9.4 153 -4.8 102070 81
2002-12-11 08:18:43 51°15.214 2°54.151 11.6 162 -4.8 102070 81
2002-12-11 08:18:48 51°15.23 2°54.135 10.6 157 -4.8 102080 81
2002-12-11 08:18:53 51°15.246 2°54.118 11.1 150 -4.8 102080 81
2002-12-11 08:18:58 51°15.262 2°54.101 8.5 143 -4.8 102080 81
2002-12-11 08:19:04 51°15.282 2°54.081 9.6 161 -4.8 102080 81
2002-12-11 08:19:08 51°15.295 2°54.068 11.4 151 -4.7 102080 81
2002-12-11 08:19:13 51°15.311 2°54.051 11.9 157 -4.7 102080 81
2002-12-11 08:19:18 51°15.327 2°54.035 12 160 -4.7 102070 81
2002-12-11 08:19:23 51°15.344 2°54.018 10.5 150 -4.7 102070 81
2002-12-11 08:19:28 51°15.36 2°54.001 10.2 147 -4.7 102070 81
2002-12-11 08:19:32 51°15.373 2°53.988 8.6 149 -4.7 102070 81
2002-12-11 08:19:38 51°15.393 2°53.969 8.2 152 -4.7 102070 81
2002-12-11 08:19:41 51°15.403 2°53.958 10 147 -4.7 102070 81
2002-12-11 08:19:48 51°15.426 2°53.935 9.9 148 -4.7 102070 81
2002-12-11 08:19:52 51°15.439 2°53.922 8.6 148 -4.7 102070 81
2002-12-11 08:19:58 51°15.459 2°53.902 9.3 154 -4.7 102080 81
2002-12-11 08:20:04 51°15.479 2°53.882 9.5 160 -4.7 102080 81
2002-12-11 08:20:08 51°15.492 2°53.869 9.9 156 -4.6 102080 81
2002-12-11 08:20:13 51°15.508 2°53.853 10.7 150 -4.6 102080 81
2002-12-11 08:20:18 51°15.525 2°53.836 11.2 152 -4.6 102080 81
2002-12-11 08:20:21 51°15.535 2°53.826 10.9 143 -4.6 102080 81
2002-12-11 08:20:28 51°15.557 2°53.803 10.3 145 -4.6 102070 81
2002-12-11 08:20:33 51°15.573 2°53.786 9.3 139 -4.6 102070 81
2002-12-11 08:20:38 51°15.59 2°53.769 8.6 141 -4.6 102070 81
2002-12-11 08:20:42 51°15.602 2°53.756 8.8 148 -4.6 102070 81
2002-12-11 08:20:48 51°15.622 2°53.736 10.4 161 -4.6 102070 81
2002-12-11 08:20:51 51°15.632 2°53.726 12.3 140 -4.6 102070 81
2002-12-11 08:20:58 51°15.654 2°53.703 10.2 152 -4.6 102070 80
2002-12-11 08:21:03 51°15.671 2°53.687 10.2 145 -4.6 102070 80
2002-12-11 08:21:08 51°15.687 2°53.67 9 153 -4.5 102070 80
2002-12-11 08:21:13 51°15.703 2°53.654 9.8 160 -4.5 102070 80
2002-12-11 08:21:17 51°15.717 2°53.642 12.2 160 -4.5 102080 81
2002-12-11 08:21:24 51°15.74 2°53.618 10.4 152 -4.5 102080 81
2002-12-11 08:21:28 51°15.753 2°53.605 10.7 153 -4.5 102070 81
2002-12-11 08:21:33 51°15.768 2°53.589 10.2 151 -4.5 102070 81
2002-12-11 08:21:38 51°15.785 2°53.572 10.5 160 -4.4 102070 81
2002-12-11 08:21:44 51°15.804 2°53.553 11 159 -4.4 102070 81
2002-12-11 08:21:48 51°15.817 2°53.54 10.3 148 -4.4 102060 81
2002-12-11 08:21:52 51°15.83 2°53.526 10.5 149 -4.4 102060 81
2002-12-11 08:21:58 51°15.849 2°53.506 9.7 154 -4.4 102070 81
2002-12-11 08:22:03 51°15.866 2°53.49 10.3 151 -4.4 102070 81
2002-12-11 08:22:08 51°15.882 2°53.474 11.5 159 -4.4 102060 80
2002-12-11 08:22:12 51°15.895 2°53.46 11.6 156 -4.4 102060 80
2002-12-11 08:22:18 51°15.915 2°53.441 10.8 147 -4.5 102060 80
2002-12-11 08:22:23 51°15.931 2°53.425 11.6 142 -4.5 102060 80
2002-12-11 08:22:28 51°15.948 2°53.408 10.4 143 -4.4 102070 80
2002-12-11 08:22:33 51°15.964 2°53.391 9.5 136 -4.4 102070 80
2002-12-11 08:22:38 51°15.98 2°53.375 9.2 133 -4.5 102070 79
2002-12-11 08:22:43 51°15.997 2°53.359 8.1 154 -4.5 102070 79
2002-12-11 08:22:48 51°16.014 2°53.342 8.5 156 -4.4 102070 80
2002-12-11 08:22:53 51°16.029 2°53.326 13.2 144 -4.4 102070 80
2002-12-11 08:22:58 51°16.045 2°53.309 12 147 -4.4 102060 80
2002-12-11 08:23:03 51°16.062 2°53.293 10.9 144 -4.4 102060 80
2002-12-11 08:23:08 51°16.079 2°53.276 10.7 146 -4.4 102080 81
2002-12-11 08:23:12 51°16.092 2°53.263 10.3 150 -4.4 102080 81
2002-12-11 08:23:18 51°16.111 2°53.244 11.8 145 -4.4 102080 81
2002-12-11 08:23:21 51°16.121 2°53.234 9.8 145 -4.4 102080 81
2002-12-11 08:23:28 51°16.144 2°53.211 10.2 147 -4.4 102070 81
2002-12-11 08:23:32 51°16.157 2°53.197 11.3 150 -4.4 102070 81
2002-12-11 08:23:38 51°16.176 2°53.177 10.1 146 -4.3 102080 81
2002-12-11 08:23:42 51°16.189 2°53.164 8.8 138 -4.3 102080 81
2002-12-11 08:23:48 51°16.208 2°53.144 8.5 144 -4.3 102060 81
2002-12-11 08:23:53 51°16.224 2°53.128 9.6 150 -4.3 102060 81
2002-12-11 08:23:58 51°16.241 2°53.111 9.5 147 -4.3 102080 80
2002-12-11 08:24:02 51°16.254 2°53.098 10.9 156 -4.3 102080 80
2002-12-11 08:24:08 51°16.273 2°53.079 10.1 162 -4.3 102080 80
2002-12-11 08:24:12 51°16.285 2°53.066 11.7 158 -4.3 102080 80
2002-12-11 08:24:18 51°16.305 2°53.046 11.7 147 -4.3 102070 81
2002-12-11 08:24:21 51°16.315 2°53.037 10.3 144 -4.3 102070 81
2002-12-11 08:24:28 51°16.338 2°53.014 10.2 142 -4.2 102070 81
2002-12-11 08:24:32 51°16.351 2°53.001 9.8 139 -4.2 102070 81
2002-12-11 08:24:38 51°16.37 2°52.982 10.7 154 -4.2 102070 81
2002-12-11 08:24:43 51°16.386 2°52.965 10.5 134 -4.2 102070 81
2002-12-11 08:24:48 51°16.403 2°52.949 8.3 140 -4.3 102060 81
2002-12-11 08:24:52 51°16.416 2°52.936 10.8 156 -4.3 102060 81
2002-12-11 08:24:58 51°16.436 2°52.917 10.8 146 -4.3 102070 79
2002-12-11 08:25:02 51°16.449 2°52.903 10.4 159 -4.3 102070 79
2002-12-11 08:25:08 51°16.468 2°52.884 10.4 153 -4.2 102080 80
2002-12-11 08:25:13 51°16.485 2°52.867 13.6 149 -4.2 102080 80
2002-12-11 08:25:18 51°16.501 2°52.851 12.2 145 -4.2 102070 80
2002-12-11 08:25:23 51°16.517 2°52.834 12.6 146 -4.2 102070 80
2002-12-11 08:25:28 51°16.534 2°52.819 13.1 143 -4.2 102080 81
2002-12-11 08:25:33 51°16.55 2°52.802 12.5 143 -4.2 102080 81
2002-12-11 08:25:38 51°16.567 2°52.786 11.9 137 -4.2 102060 81
2002-12-11 08:25:43 51°16.583 2°52.77 11.3 137 -4.2 102060 81
2002-12-11 08:25:48 51°16.599 2°52.754 10.2 141 -4.2 102050 81
2002-12-11 08:25:53 51°16.616 2°52.738 9.1 143 -4.2 102050 81
2002-12-11 08:25:58 51°16.632 2°52.721 11 145 -4.2 102060 80
2002-12-11 08:26:03 51°16.65 2°52.707 10.6 150 -4.2 102060 80
2002-12-11 08:26:08 51°16.666 2°52.691 10.3 157 -4.2 102070 79
2002-12-11 08:26:11 51°16.676 2°52.682 10.5 160 -4.2 102070 79
2002-12-11 08:26:18 51°16.7 2°52.662 12 147 -4.2 102070 79
2002-12-11 08:26:22 51°16.714 2°52.65 12.1 145 -4.2 102070 79
2002-12-11 08:26:28 51°16.734 2°52.633 11.4 150 -4.2 102070 81
2002-12-11 08:26:32 51°16.748 2°52.623 9.9 144 -4.2 102070 81
2002-12-11 08:26:38 51°16.768 2°52.605 10.3 147 -4.1 102070 81
2002-12-11 08:26:43 51°16.785 2°52.594 11.5 152 -4.1 102070 81
2002-12-11 08:26:48 51°16.803 2°52.583 11.6 151 -4.2 102070 81
2002-12-11 08:26:53 51°16.822 2°52.573 14.2 167 -4.2 102070 81
2002-12-11 08:26:58 51°16.84 2°52.563 13.7 160 -4.1 102060 81
2002-12-11 08:27:03 51°16.858 2°52.554 12.4 165 -4.1 102060 81
2002-12-11 08:27:08 51°16.877 2°52.545 13.1 159 -4.1 102060 81
2002-12-11 08:27:12 51°16.891 2°52.537 11.7 147 -4.1 102060 81
2002-12-11 08:27:18 51°16.913 2°52.526 12 155 -4.1 102060 81
2002-12-11 08:27:24 51°16.935 2°52.515 12 160 -4.1 102060 81
2002-12-11 08:27:28 51°16.95 2°52.508 13.3 169 -4.1 102060 81
2002-12-11 08:27:33 51°16.968 2°52.5 14.4 176 -4.1 102060 81
2002-12-11 08:27:38 51°16.986 2°52.491 14.4 165 -4.1 102050 80
2002-12-11 08:27:44 51°17.008 2°52.481 15.1 161 -4.1 102050 80
2002-12-11 08:27:48 51°17.022 2°52.474 13.6 155 -4.1 102060 80
2002-12-11 08:27:53 51°17.04 2°52.465 13.7 162 -4.1 102060 80
2002-12-11 08:27:58 51°17.058 2°52.457 14 158 -4.1 102040 80
2002-12-11 08:28:03 51°17.076 2°52.448 13.7 162 -4.1 102040 80
2002-12-11 08:28:08 51°17.095 2°52.44 12.7 159 -4.1 102040 80
2002-12-11 08:28:12 51°17.109 2°52.433 13.6 165 -4.1 102040 80
2002-12-11 08:28:18 51°17.132 2°52.424 11.8 168 -4.1 102040 80
2002-12-11 08:28:24 51°17.154 2°52.416 15.9 164 -4.1 102040 80
2002-12-11 08:28:28 51°17.169 2°52.41 15.7 167 -4.1 102030 80
2002-12-11 08:28:32 51°17.184 2°52.405 14.6 166 -4.1 102030 80
2002-12-11 08:28:38 51°17.207 2°52.396 14.8 169 -4.1 102050 80
2002-12-11 08:28:42 51°17.222 2°52.391 16.4 162 -4.1 102050 80
2002-12-11 08:28:48 51°17.244 2°52.382 15.8 161 -4 102050 81
2002-12-11 08:28:53 51°17.263 2°52.375 14.5 161 -4 102050 81
2002-12-11 08:28:58 51°17.282 2°52.368 14.6 159 -4 102040 81
2002-12-11 08:29:03 51°17.301 2°52.361 15.5 165 -4 102040 81
2002-12-11 08:29:08 51°17.319 2°52.353 14.6 166 -4 102020 81
2002-12-11 08:29:13 51°17.338 2°52.346 12.4 163 -4 102020 81
2002-12-11 08:29:18 51°17.357 2°52.339 13.5 162 -4.1 102040 80
2002-12-11 08:29:23 51°17.375 2°52.332 12.2 164 -4.1 102040 80
2002-12-11 08:29:28 51°17.394 2°52.324 16.2 169 -4.1 102040 79
2002-12-11 08:29:33 51°17.413 2°52.317 15 176 -4.1 102040 79
2002-12-11 08:29:38 51°17.432 2°52.31 15.8 170 -4.1 102080 78
2002-12-11 08:29:43 51°17.45 2°52.302 14.4 165 -4.1 102080 78
2002-12-11 08:29:48 51°17.469 2°52.295 13 163 -4.1 102060 79
2002-12-11 08:29:53 51°17.488 2°52.288 12.7 161 -4.1 102060 79
2002-12-11 08:29:58 51°17.507 2°52.281 11.4 161 -4 102040 80
2002-12-11 08:30:04 51°17.53 2°52.272 13.9 171 -4 102040 80
2002-12-11 08:30:08 51°17.545 2°52.266 15 169 -4 102050 80
2002-12-11 08:30:13 51°17.563 2°52.258 13.2 162 -4 102050 80
2002-12-11 08:30:18 51°17.583 2°52.251 12.8 161 -3.9 102040 80
2002-12-11 08:30:21 51°17.594 2°52.247 14.5 167 -3.9 102040 80
2002-12-11 08:30:28 51°17.619 2°52.236 15.7 165 -4 102070 80
2002-12-11 08:30:33 51°17.637 2°52.229 14.8 166 -4 102070 80
2002-12-11 08:30:38 51°17.656 2°52.222 16.3 160 -4 102050 80
2002-12-11 08:30:44 51°17.679 2°52.213 15.6 162 -4 102050 80
2002-12-11 08:30:48 51°17.694 2°52.209 14.2 166 -4 102040 80
2002-12-11 08:30:53 51°17.713 2°52.202 15.9 171 -4 102040 80
2002-12-11 08:30:58 51°17.732 2°52.196 15.4 171 -4 102060 80
2002-12-11 08:31:03 51°17.751 2°52.19 14.6 169 -4 102060 80
2002-12-11 08:31:08 51°17.77 2°52.183 14.4 176 -4 102050 80
2002-12-11 08:31:13 51°17.789 2°52.178 14.1 175 -4 102050 80
2002-12-11 08:31:18 51°17.808 2°52.173 14.8 174 -4 102050 80
2002-12-11 08:31:24 51°17.831 2°52.169 14.4 171 -4 102050 80
2002-12-11 08:31:28 51°17.846 2°52.166 15 173 -4 102060 80
2002-12-11 08:31:32 51°17.862 2°52.164 15 176 -4 102060 80
2002-12-11 08:31:38 51°17.885 2°52.159 14.8 171 -4 102050 79
2002-12-11 08:31:43 51°17.904 2°52.157 15.3 168 -4 102050 79
2002-12-11 08:31:48 51°17.923 2°52.154 15.5 169 -4.1 102070 78
2002-12-11 08:31:53 51°17.942 2°52.151 15.9 170 -4.1 102070 78
2002-12-11 08:31:58 51°17.961 2°52.149 15 170 -4 102040 79
2002-12-11 08:32:04 51°17.984 2°52.146 15.6 169 -4 102040 79
2002-12-11 08:32:08 51°17.999 2°52.143 15.2 172 -4 102070 80
2002-12-11 08:32:12 51°18.014 2°52.14 14.6 178 -4 102070 80
2002-12-11 08:32:18 51°18.037 2°52.137 16.9 171 -4 102030 80
2002-12-11 08:32:22 51°18.052 2°52.135 15.8 170 -4 102030 80
2002-12-11 08:32:28 51°18.076 2°52.131 16 175 -3.9 102050 81
2002-12-11 08:32:32 51°18.091 2°52.13 17.1 172 -3.9 102050 81
2002-12-11 08:32:38 51°18.114 2°52.129 16.2 173 -3.9 102040 81
2002-12-11 08:32:43 51°18.133 2°52.128 16.2 174 -3.9 102040 81
2002-12-11 08:32:48 51°18.153 2°52.13 17.9 182 -3.8 102030 82
2002-12-11 08:32:53 51°18.172 2°52.132 15.3 179 -3.8 102030 82
2002-12-11 08:32:58 51°18.191 2°52.138 14.2 183 -3.8 102030 83
2002-12-11 08:33:04 51°18.213 2°52.148 15.3 193 -3.8 102030 83
2002-12-11 08:33:08 51°18.227 2°52.155 16.7 194 -3.8 102030 83
2002-12-11 08:33:14 51°18.247 2°52.169 18.1 196 -3.8 102030 83
2002-12-11 08:33:18 51°18.26 2°52.179 18.1 195 -3.9 102020 84
2002-12-11 08:33:23 51°18.276 2°52.193 17.4 196 -3.9 102020 84
2002-12-11 08:33:28 51°18.292 2°52.209 16.2 197 -3.8 102030 84
2002-12-11 08:33:32 51°18.304 2°52.222 16.2 201 -3.8 102030 84
2002-12-11 08:33:38 51°18.322 2°52.241 17.9 204 -3.9 102020 84
2002-12-11 08:33:43 51°18.337 2°52.258 20.6 208 -3.9 102020 84
2002-12-11 08:33:48 51°18.351 2°52.277 19.9 208 -3.9 102010 83
2002-12-11 08:33:53 51°18.364 2°52.297 18.5 208 -3.9 102010 83
2002-12-11 08:33:58 51°18.377 2°52.318 18.5 214 -4 102020 83
2002-12-11 08:34:03 51°18.39 2°52.339 18.7 211 -4 102020 83
2002-12-11 08:34:08 51°18.402 2°52.361 18.3 210 -4 102030 84
2002-12-11 08:34:13 51°18.414 2°52.383 19.6 205 -4 102030 84
2002-12-11 08:34:18 51°18.426 2°52.405 17.4 208 -4 102010 84
2002-12-11 08:34:23 51°18.437 2°52.428 17.4 212 -4 102010 84
2002-12-11 08:34:28 51°18.448 2°52.45 17.6 209 -4 102030 84
2002-12-11 08:34:33 51°18.46 2°52.473 19.7 210 -4 102030 84
2002-12-11 08:34:38 51°18.471 2°52.496 20.8 211 -4 102030 84
2002-12-11 08:34:44 51°18.485 2°52.522 20.4 210 -4 102030 84
2002-12-11 08:34:48 51°18.494 2°52.54 20.6 213 -4 102020 84
2002-12-11 08:34:53 51°18.505 2°52.563 19.1 215 -4 102020 84
2002-12-11 08:34:58 51°18.516 2°52.586 19.2 208 -4 102040 85
2002-12-11 08:35:04 51°18.53 2°52.613 22.4 211 -4 102040 85
2002-12-11 08:35:08 51°18.539 2°52.631 20.6 212 -4 102020 85
2002-12-11 08:35:13 51°18.55 2°52.654 20 213 -4 102020 85
2002-12-11 08:35:18 51°18.561 2°52.676 19.6 210 -4 102030 85
2002-12-11 08:35:23 51°18.572 2°52.7 18.6 214 -4 102030 85
2002-12-11 08:35:28 51°18.582 2°52.724 21.1 216 -4.1 102020 85
2002-12-11 08:35:33 51°18.592 2°52.748 18 215 -4.1 102020 85
2002-12-11 08:35:38 51°18.603 2°52.772 20.8 217 -4.1 102030 85
2002-12-11 08:35:41 51°18.608 2°52.786 20.9 216 -4.1 102030 85
2002-12-11 08:35:48 51°18.622 2°52.82 21.3 215 -4.1 102030 85
2002-12-11 08:35:52 51°18.63 2°52.839 20.3 214 -4.1 102030 85
2002-12-11 08:35:57 51°18.639 2°52.862 19.1 211 -4.1 102040 85
2002-12-11 08:36:03 51°18.651 2°52.891 20.9 217 -4.1 102040 85
2002-12-11 08:36:08 51°18.66 2°52.915 20.8 219 -4.2 102020 85
2002-12-11 08:36:12 51°18.668 2°52.935 19.6 214 -4.2 102020 85
2002-12-11 08:36:18 51°18.679 2°52.964 22.3 221 -4.2 102030 85
2002-12-11 08:36:23 51°18.688 2°52.988 19.9 220 -4.2 102030 85
2002-12-11 08:36:28 51°18.698 2°53.012 21.1 219 -4.2 102040 85
2002-12-11 08:36:32 51°18.706 2°53.031 22.3 220 -4.2 102040 85
2002-12-11 08:36:38 51°18.718 2°53.06 21.3 221 -4.2 102030 85
2002-12-11 08:36:43 51°18.728 2°53.084 21.1 218 -4.2 102030 85
2002-12-11 08:36:48 51°18.738 2°53.108 22.6 217 -4.2 102020 85
2002-12-11 08:36:52 51°18.746 2°53.127 21.5 213 -4.2 102020 85
2002-12-11 08:36:58 51°18.757 2°53.156 21.3 218 -4.2 102010 85
2002-12-11 08:37:03 51°18.768 2°53.18 21.2 215 -4.2 102010 85
2002-12-11 08:37:08 51°18.778 2°53.204 20.7 211 -4.2 102040 85
2002-12-11 08:37:13 51°18.787 2°53.229 22.2 218 -4.2 102040 85
2002-12-11 08:37:18 51°18.797 2°53.253 21.5 220 -4.2 102020 85
2002-12-11 08:37:24 51°18.808 2°53.281 21.6 219 -4.2 102020 85
2002-12-11 08:37:28 51°18.817 2°53.3 22 216 -4.2 102030 85
2002-12-11 08:37:33 51°18.826 2°53.324 20.6 218 -4.2 102030 85
2002-12-11 08:37:38 51°18.836 2°53.347 21.7 220 -4.2 102000 85
2002-12-11 08:37:44 51°18.847 2°53.377 19.8 212 -4.2 102000 85
2002-12-11 08:37:48 51°18.855 2°53.396 18.8 211 -4.2 102040 85
2002-12-11 08:37:53 51°18.864 2°53.419 21.9 213 -4.2 102040 85
2002-12-11 08:37:58 51°18.873 2°53.443 21.9 213 -4.1 102020 85
2002-12-11 08:38:04 51°18.885 2°53.471 20.6 212 -4.1 102020 85
2002-12-11 08:38:08 51°18.893 2°53.491 18.4 210 -4.1 102020 85
2002-12-11 08:38:12 51°18.901 2°53.51 18.8 211 -4.1 102020 85
2002-12-11 08:38:18 51°18.913 2°53.538 20.3 212 -4.2 102030 85
2002-12-11 08:38:23 51°18.923 2°53.562 19.9 214 -4.2 102030 85
2002-12-11 08:38:28 51°18.932 2°53.586 18.2 219 -4.1 102010 85
2002-12-11 08:38:33 51°18.942 2°53.61 19.7 216 -4.1 102010 85
2002-12-11 08:38:38 51°18.952 2°53.635 20 221 -4.2 102020 85
2002-12-11 08:38:43 51°18.962 2°53.659 19.2 223 -4.2 102020 85
2002-12-11 08:38:48 51°18.971 2°53.684 20.4 221 -4.2 102020 85
2002-12-11 08:38:53 51°18.981 2°53.708 19.7 213 -4.2 102020 85
2002-12-11 08:38:58 51°18.99 2°53.733 18.4 218 -4.1 102030 85
2002-12-11 08:39:03 51°18.999 2°53.757 18.4 215 -4.1 102030 85
2002-12-11 08:39:08 51°19.008 2°53.782 19.3 216 -4.1 102040 85
2002-12-11 08:39:13 51°19.018 2°53.806 18.9 217 -4.1 102040 85
2002-12-11 08:39:18 51°19.027 2°53.831 18.8 220 -4 102040 86
2002-12-11 08:39:24 51°19.038 2°53.861 18.3 224 -4 102040 86
2002-12-11 08:39:28 51°19.046 2°53.88 18.7 216 -4 102040 86
2002-12-11 08:39:33 51°19.055 2°53.905 20.6 223 -4 102040 86
2002-12-11 08:39:38 51°19.065 2°53.93 19.2 223 -4 102050 86
2002-12-11 08:39:42 51°19.072 2°53.95 20.1 222 -4 102050 86
2002-12-11 08:39:48 51°19.083 2°53.979 19.7 224 -3.9 102030 86
2002-12-11 08:39:52 51°19.09 2°53.999 18.5 221 -3.9 102030 86
2002-12-11 08:39:58 51°19.102 2°54.028 19.4 216 -3.9 102040 86
2002-12-11 08:40:04 51°19.113 2°54.057 21.6 217 -3.9 102040 86
2002-12-11 08:40:08 51°19.121 2°54.076 20.8 215 -3.9 102040 86
2002-12-11 08:40:13 51°19.13 2°54.101 21.3 212 -3.9 102040 86
2002-12-11 08:40:18 51°19.14 2°54.125 19.2 212 -3.9 102030 86
2002-12-11 08:40:21 51°19.146 2°54.139 21.3 215 -3.9 102030 86
2002-12-11 08:40:28 51°19.159 2°54.172 19.8 218 -3.9 102030 85
2002-12-11 08:40:32 51°19.167 2°54.192 20 215 -3.9 102030 85
2002-12-11 08:40:38 51°19.178 2°54.221 18.5 218 -4 102010 85
2002-12-11 08:40:43 51°19.187 2°54.246 18.3 220 -4 102010 85
2002-12-11 08:40:48 51°19.197 2°54.27 19.8 219 -4 102010 85
2002-12-11 08:40:53 51°19.207 2°54.294 20.9 219 -4 102010 85
2002-12-11 08:40:58 51°19.217 2°54.318 20.9 216 -4 102040 85
2002-12-11 08:41:03 51°19.227 2°54.342 22.9 215 -4 102040 85
2002-12-11 08:41:08 51°19.236 2°54.366 22.2 217 -3.9 102040 85
2002-12-11 08:41:12 51°19.245 2°54.385 20.7 212 -3.9 102040 85
2002-12-11 08:41:18 51°19.256 2°54.414 19.5 217 -4 102040 85
2002-12-11 08:41:23 51°19.266 2°54.438 19.7 214 -4 102040 85
2002-12-11 08:41:28 51°19.275 2°54.462 20.1 217 -4 102030 84
2002-12-11 08:41:33 51°19.285 2°54.487 20.6 214 -4 102030 84
2002-12-11 08:41:38 51°19.295 2°54.511 19.3 215 -4 102020 84
2002-12-11 08:41:43 51°19.305 2°54.535 18.7 218 -4 102020 84
2002-12-11 08:41:48 51°19.314 2°54.559 19.3 220 -4 102040 84
2002-12-11 08:41:53 51°19.323 2°54.583 19.2 212 -4 102040 84
2002-12-11 08:41:58 51°19.333 2°54.608 20.8 212 -4 102010 84
2002-12-11 08:42:03 51°19.343 2°54.631 21.9 213 -4 102010 84
2002-12-11 08:42:08 51°19.353 2°54.655 20.4 212 -4 102030 84
2002-12-11 08:42:14 51°19.365 2°54.684 18.2 213 -4 102030 84
2002-12-11 08:42:18 51°19.372 2°54.704 18.3 217 -3.9 102040 85
2002-12-11 08:42:23 51°19.382 2°54.727 18.5 217 -3.9 102040 85
2002-12-11 08:42:28 51°19.392 2°54.752 20.9 216 -4 102040 85
2002-12-11 08:42:32 51°19.399 2°54.771 18.5 215 -4 102040 85
2002-12-11 08:42:38 51°19.41 2°54.8 17.7 218 -4 102060 84
2002-12-11 08:42:43 51°19.42 2°54.824 21.8 225 -4 102060 84
2002-12-11 08:42:48 51°19.43 2°54.848 20.8 217 -4 102040 84
2002-12-11 08:42:53 51°19.44 2°54.872 20 217 -4 102040 84
2002-12-11 08:42:58 51°19.449 2°54.896 20.7 221 -3.9 102050 84
2002-12-11 08:43:04 51°19.461 2°54.925 19.5 212 -3.9 102050 84
2002-12-11 08:43:08 51°19.468 2°54.945 17.5 220 -3.9 102040 85
2002-12-11 08:43:12 51°19.477 2°54.964 19.3 220 -3.9 102040 85
2002-12-11 08:43:18 51°19.488 2°54.993 19.1 219 -3.9 102040 85
2002-12-11 08:43:24 51°19.5 2°55.023 18.8 217 -3.9 102040 85
2002-12-11 08:43:28 51°19.508 2°55.043 19.1 215 -3.8 102040 85
2002-12-11 08:43:33 51°19.518 2°55.066 18.1 208 -3.8 102040 85
2002-12-11 08:43:38 51°19.527 2°55.091 19.6 214 -3.8 102060 85
2002-12-11 08:43:44 51°19.539 2°55.12 19.6 216 -3.8 102060 85
2002-12-11 08:43:48 51°19.547 2°55.14 20.2 220 -3.8 102050 85
2002-12-11 08:43:53 51°19.557 2°55.164 18.8 222 -3.8 102050 85
2002-12-11 08:43:58 51°19.567 2°55.188 20.5 219 -3.8 102040 85
2002-12-11 08:44:04 51°19.579 2°55.218 20.4 218 -3.8 102040 85
2002-12-11 08:44:08 51°19.587 2°55.236 20.4 216 -3.7 102030 85
2002-12-11 08:44:13 51°19.596 2°55.261 20.5 213 -3.7 102030 85
2002-12-11 08:44:18 51°19.606 2°55.285 19.6 213 -3.7 102040 85
2002-12-11 08:44:23 51°19.616 2°55.309 18.9 217 -3.7 102040 85
2002-12-11 08:44:28 51°19.626 2°55.333 19.3 220 -3.7 102030 85
2002-12-11 08:44:33 51°19.635 2°55.358 19.5 217 -3.7 102030 85
2002-12-11 08:44:38 51°19.645 2°55.381 19.2 214 -3.8 102030 84
2002-12-11 08:44:43 51°19.655 2°55.406 19.4 218 -3.8 102030 84
2002-12-11 08:44:48 51°19.665 2°55.43 20.5 222 -3.8 102030 84
2002-12-11 08:44:54 51°19.677 2°55.46 21.5 218 -3.8 102030 84
2002-12-11 08:44:58 51°19.685 2°55.479 20.2 215 -3.9 102030 84
2002-12-11 08:45:03 51°19.695 2°55.503 19.9 217 -3.9 102030 84
2002-12-11 08:45:08 51°19.705 2°55.527 21.4 218 -3.8 102040 84
2002-12-11 08:45:13 51°19.714 2°55.551 20.5 218 -3.8 102040 84
2002-12-11 08:45:18 51°19.725 2°55.575 19.5 215 -3.8 102030 84
2002-12-11 08:45:23 51°19.734 2°55.599 18.2 219 -3.8 102030 84
2002-12-11 08:45:28 51°19.744 2°55.624 19.8 218 -3.8 102040 84
2002-12-11 08:45:34 51°19.756 2°55.653 20.3 213 -3.8 102040 84
2002-12-11 08:45:38 51°19.764 2°55.673 17.5 217 -3.9 102040 84
2002-12-11 08:45:43 51°19.774 2°55.696 17.5 214 -3.9 102040 84
2002-12-11 08:45:48 51°19.784 2°55.721 18.8 214 -3.9 102040 84
2002-12-11 08:45:54 51°19.796 2°55.75 20.2 221 -3.9 102040 84
2002-12-11 08:45:58 51°19.804 2°55.769 19.1 219 -3.8 102040 84
2002-12-11 08:46:03 51°19.814 2°55.793 20.9 215 -3.8 102040 84
2002-12-11 08:46:08 51°19.824 2°55.818 21.1 213 -3.8 102050 84
2002-12-11 08:46:13 51°19.833 2°55.842 21.1 215 -3.8 102050 84
2002-12-11 08:46:18 51°19.842 2°55.867 20.9 213 -3.7 102030 85
2002-12-11 08:46:23 51°19.852 2°55.891 20 219 -3.7 102030 85
2002-12-11 08:46:28 51°19.861 2°55.915 21.3 214 -3.7 102040 85
2002-12-11 08:46:32 51°19.869 2°55.934 21 213 -3.7 102040 85
2002-12-11 08:46:38 51°19.881 2°55.964 21.4 215 -3.7 102040 85
2002-12-11 08:46:43 51°19.891 2°55.988 20.2 215 -3.7 102040 85
2002-12-11 08:46:48 51°19.901 2°56.011 22.2 218 -3.7 102040 84
2002-12-11 08:46:52 51°19.908 2°56.03 19.5 212 -3.7 102040 84
2002-12-11 08:46:58 51°19.92 2°56.059 19.9 215 -3.8 102030 84
2002-12-11 08:47:03 51°19.93 2°56.083 21.1 217 -3.8 102030 84
2002-12-11 08:47:08 51°19.94 2°56.107 21.2 217 -3.8 102030 83
2002-12-11 08:47:13 51°19.95 2°56.13 20.8 214 -3.8 102030 83
2002-12-11 08:47:18 51°19.96 2°56.154 19.8 218 -3.9 102030 83
2002-12-11 08:47:23 51°19.969 2°56.177 19.5 224 -3.9 102030 83
2002-12-11 08:47:28 51°19.979 2°56.202 22.7 220 -3.8 102050 83
2002-12-11 08:47:32 51°19.987 2°56.221 19.6 217 -3.8 102050 83
2002-12-11 08:47:38 51°19.999 2°56.25 21.5 215 -3.9 102020 83
2002-12-11 08:47:41 51°20.004 2°56.264 21.2 216 -3.9 102020 83
2002-12-11 08:47:48 51°20.018 2°56.297 20.6 215 -3.9 102040 83
2002-12-11 08:47:53 51°20.028 2°56.32 20.3 211 -3.9 102040 83
2002-12-11 08:47:58 51°20.038 2°56.344 19.3 212 -3.9 102030 83
2002-12-11 08:48:03 51°20.048 2°56.368 19.4 207 -3.9 102030 83
2002-12-11 08:48:08 51°20.058 2°56.391 18.7 211 -3.9 102030 83
2002-12-11 08:48:11 51°20.064 2°56.406 17.3 213 -3.9 102030 83
2002-12-11 08:48:18 51°20.077 2°56.439 18.1 215 -3.9 102030 82
2002-12-11 08:48:23 51°20.087 2°56.463 18.4 220 -3.9 102030 82
2002-12-11 08:48:28 51°20.097 2°56.487 20.9 220 -3.9 102030 82
2002-12-11 08:48:32 51°20.104 2°56.507 19 221 -3.9 102030 82
2002-12-11 08:48:38 51°20.113 2°56.538 21.7 226 -3.9 102040 82
2002-12-11 08:48:43 51°20.12 2°56.563 20.7 232 -3.9 102040 82
2002-12-11 08:48:48 51°20.126 2°56.59 23.2 231 -3.8 102040 83
2002-12-11 08:48:53 51°20.132 2°56.617 22.1 228 -3.8 102040 83
2002-12-11 08:48:58 51°20.136 2°56.644 21.5 230 -3.8 102050 83
2002-12-11 08:49:04 51°20.14 2°56.678 22.4 227 -3.8 102050 83
2002-12-11 08:49:08 51°20.143 2°56.7 21.9 225 -3.8 102060 83
2002-12-11 08:49:14 51°20.148 2°56.733 20.6 227 -3.8 102060 83
2002-12-11 08:49:18 51°20.151 2°56.755 20.7 226 -3.8 102040 83
2002-12-11 08:49:23 51°20.156 2°56.782 22.5 224 -3.8 102040 83
2002-12-11 08:49:28 51°20.161 2°56.809 21.4 134 -3.8 102050 82
2002-12-11 08:49:32 51°20.165 2°56.831 21.2 224 -3.8 102050 82
2002-12-11 08:49:38 51°20.171 2°56.864 21.5 223 -3.8 102030 82
2002-12-11 08:49:43 51°20.177 2°56.89 21.8 222 -3.8 102030 82
2002-12-11 08:49:48 51°20.182 2°56.918 20.7 222 -3.8 102060 82
2002-12-11 08:49:53 51°20.189 2°56.944 23.2 222 -3.8 102060 82
2002-12-11 08:49:58 51°20.194 2°56.971 23 225 -3.9 102070 81
2002-12-11 08:50:04 51°20.201 2°57.004 20.8 226 -3.9 102070 81
2002-12-11 08:50:08 51°20.205 2°57.026 21 225 -3.9 102030 82
2002-12-11 08:50:14 51°20.212 2°57.058 20.6 223 -3.9 102030 82
2002-12-11 08:50:18 51°20.216 2°57.08 22.3 226 -3.9 102030 82
2002-12-11 08:50:22 51°20.22 2°57.102 22.5 225 -3.9 102030 82
2002-12-11 08:50:28 51°20.227 2°57.134 22.7 226 -3.9 102030 82
2002-12-11 08:50:32 51°20.231 2°57.156 21.3 224 -3.9 102030 82
2002-12-11 08:50:38 51°20.237 2°57.188 22.5 228 -3.8 102040 82
2002-12-11 08:50:42 51°20.242 2°57.21 21.6 228 -3.8 102040 82
2002-12-11 08:50:48 51°20.248 2°57.242 22.8 223 -3.9 102030 81
2002-12-11 08:50:53 51°20.253 2°57.269 22.5 224 -3.9 102030 81
2002-12-11 08:50:58 51°20.258 2°57.297 21.3 226 -3.9 102050 81
2002-12-11 08:51:03 51°20.264 2°57.324 22.1 230 -3.9 102050 81
2002-12-11 08:51:08 51°20.269 2°57.35 22.5 228 -3.9 102030 81
2002-12-11 08:51:13 51°20.274 2°57.377 20.9 228 -3.9 102030 81
2002-12-11 08:51:18 51°20.28 2°57.405 19.6 227 -3.9 102030 80
2002-12-11 08:51:24 51°20.286 2°57.437 20 226 -3.9 102030 80
2002-12-11 08:51:28 51°20.29 2°57.458 20.9 224 -3.9 102030 80
2002-12-11 08:51:33 51°20.296 2°57.485 20.7 222 -3.9 102030 80
2002-12-11 08:51:38 51°20.301 2°57.512 22.2 230 -3.9 102040 80
2002-12-11 08:51:44 51°20.308 2°57.544 22.8 225 -3.9 102040 80
2002-12-11 08:51:48 51°20.312 2°57.566 22 227 -3.9 102050 81
2002-12-11 08:51:52 51°20.318 2°57.588 21.3 227 -3.9 102050 81
2002-12-11 08:51:57 51°20.322 2°57.615 19.9 226 -3.9 102050 81
2002-12-11 08:52:04 51°20.331 2°57.652 20.5 225 -3.9 102050 81
2002-12-11 08:52:08 51°20.335 2°57.674 20.4 222 -3.9 102050 81
2002-12-11 08:52:13 51°20.34 2°57.701 19.6 223 -3.9 102050 81
2002-12-11 08:52:18 51°20.346 2°57.728 21.6 225 -3.9 102050 80
2002-12-11 08:52:22 51°20.351 2°57.749 20 225 -3.9 102050 80
2002-12-11 08:52:28 51°20.357 2°57.781 20.7 222 -3.9 102050 80
2002-12-11 08:52:33 51°20.362 2°57.809 19 225 -3.9 102050 80
2002-12-11 08:52:38 51°20.368 2°57.836 21.2 225 -3.9 102040 80
2002-12-11 08:52:44 51°20.374 2°57.868 21.2 228 -3.9 102040 80
2002-12-11 08:52:48 51°20.379 2°57.889 21.2 229 -3.9 102040 80
2002-12-11 08:52:53 51°20.384 2°57.917 20.5 227 -3.9 102040 80
2002-12-11 08:52:58 51°20.389 2°57.944 20.7 225 -3.8 102040 80
2002-12-11 08:53:03 51°20.395 2°57.971 22 224 -3.8 102040 80
2002-12-11 08:53:08 51°20.4 2°57.998 20.7 227 -3.8 102050 80
2002-12-11 08:53:13 51°20.406 2°58.025 21.5 224 -3.8 102050 80
2002-12-11 08:53:18 51°20.411 2°58.052 22 223 -3.9 102050 80
2002-12-11 08:53:23 51°20.417 2°58.078 21.5 224 -3.9 102050 80
2002-12-11 08:53:28 51°20.423 2°58.105 19.3 223 -3.8 102040 80
2002-12-11 08:53:33 51°20.428 2°58.132 19.1 222 -3.8 102040 80
2002-12-11 08:53:38 51°20.434 2°58.159 20.3 220 -3.8 102050 80
2002-12-11 08:53:43 51°20.439 2°58.186 20.7 226 -3.8 102050 80
2002-12-11 08:53:48 51°20.445 2°58.212 20.1 224 -3.8 102030 80
2002-12-11 08:53:53 51°20.449 2°58.239 19.7 224 -3.8 102030 80
2002-12-11 08:53:58 51°20.455 2°58.266 18.4 228 -3.8 102060 80
2002-12-11 08:54:03 51°20.46 2°58.292 21.8 225 -3.8 102060 80
2002-12-11 08:54:08 51°20.466 2°58.319 21.1 222 -3.8 102040 80
2002-12-11 08:54:13 51°20.471 2°58.346 20.3 226 -3.8 102040 80
2002-12-11 08:54:18 51°20.477 2°58.372 22.2 226 -3.7 102030 80
2002-12-11 08:54:23 51°20.482 2°58.399 19.5 227 -3.7 102030 80
2002-12-11 08:54:28 51°20.488 2°58.425 21.5 221 -3.7 102040 80
2002-12-11 08:54:33 51°20.493 2°58.452 18.6 233 -3.7 102040 80
2002-12-11 08:54:38 51°20.499 2°58.477 21.4 224 -3.8 102030 80
2002-12-11 08:54:43 51°20.504 2°58.504 21.3 316 -3.8 102030 80
2002-12-11 08:54:48 51°20.51 2°58.53 22.6 227 -3.8 102040 79
2002-12-11 08:54:52 51°20.514 2°58.552 22 226 -3.8 102040 79
2002-12-11 08:54:58 51°20.52 2°58.583 22.5 226 -3.8 102030 79
2002-12-11 08:55:04 51°20.527 2°58.615 22.3 224 -3.8 102030 79
2002-12-11 08:55:08 51°20.531 2°58.637 22.4 223 -3.8 102050 79
2002-12-11 08:55:13 51°20.537 2°58.663 21.5 224 -3.8 102050 79
2002-12-11 08:55:18 51°20.542 2°58.69 21.8 226 -3.8 102050 79
2002-12-11 08:55:23 51°20.548 2°58.717 18.7 221 -3.8 102050 79
2002-12-11 08:55:28 51°20.553 2°58.744 20.7 222 -3.8 102020 79
2002-12-11 08:55:33 51°20.559 2°58.77 20.4 224 -3.8 102020 79
2002-12-11 08:55:38 51°20.565 2°58.797 20.3 223 -3.8 102040 79
2002-12-11 08:55:44 51°20.571 2°58.829 21 223 -3.8 102040 79
2002-12-11 08:55:48 51°20.576 2°58.85 21.2 226 -3.8 102040 78
2002-12-11 08:55:53 51°20.58 2°58.877 20.7 227 -3.8 102040 78
2002-12-11 08:55:57 51°20.585 2°58.898 22.6 225 -3.8 102050 79
2002-12-11 08:56:03 51°20.591 2°58.93 21.6 230 -3.8 102050 79
2002-12-11 08:56:08 51°20.598 2°58.957 20.8 225 -3.8 102050 79
2002-12-11 08:56:13 51°20.602 2°58.983 21.1 225 -3.8 102050 79
2002-12-11 08:56:18 51°20.608 2°59.01 20.1 134 -3.8 102040 79
2002-12-11 08:56:23 51°20.613 2°59.037 21.4 225 -3.8 102040 79
2002-12-11 08:56:28 51°20.619 2°59.064 21.1 224 -3.8 102040 79
2002-12-11 08:56:32 51°20.623 2°59.085 21.7 228 -3.8 102040 79
2002-12-11 08:56:38 51°20.63 2°59.117 20.4 225 -3.8 102050 79
2002-12-11 08:56:43 51°20.636 2°59.143 21.7 225 -3.8 102050 79
2002-12-11 08:56:49 51°20.642 2°59.175 21.7 225 -3.8 102060 79
2002-12-11 08:56:53 51°20.646 2°59.197 21.1 224 -3.8 102060 79
2002-12-11 08:56:58 51°20.652 2°59.224 21.5 221 -3.8 102060 79
2002-12-11 08:57:03 51°20.658 2°59.25 20.9 226 -3.8 102060 79
2002-12-11 08:57:08 51°20.663 2°59.276 20.4 225 -3.7 102050 79
2002-12-11 08:57:14 51°20.669 2°59.308 21.4 228 -3.7 102050 79
2002-12-11 08:57:18 51°20.673 2°59.33 21.1 226 -3.7 102050 79
2002-12-11 08:57:23 51°20.679 2°59.356 19.2 228 -3.7 102050 79
2002-12-11 08:57:28 51°20.684 2°59.383 20.8 227 -3.7 102050 79
2002-12-11 08:57:34 51°20.69 2°59.416 21.7 229 -3.7 102050 79
2002-12-11 08:57:38 51°20.695 2°59.437 19.8 229 -3.7 102050 79
2002-12-11 08:57:42 51°20.7 2°59.458 21.9 229 -3.7 102050 79
2002-12-11 08:57:48 51°20.707 2°59.49 20.5 220 -3.7 102060 79
2002-12-11 08:57:53 51°20.713 2°59.518 19.6 228 -3.7 102060 79
2002-12-11 08:57:57 51°20.717 2°59.539 18.8 221 -3.7 102050 78
2002-12-11 08:58:04 51°20.725 2°59.576 21.5 224 -3.7 102050 78
2002-12-11 08:58:08 51°20.729 2°59.598 21.1 225 -3.8 102060 78
2002-12-11 08:58:12 51°20.734 2°59.619 20.2 223 -3.8 102060 78
2002-12-11 08:58:18 51°20.74 2°59.651 22 225 -3.7 102050 78
2002-12-11 08:58:23 51°20.745 2°59.678 21.4 223 -3.7 102050 78
2002-12-11 08:58:28 51°20.75 2°59.705 20.7 222 -3.7 102050 79
2002-12-11 08:58:32 51°20.754 2°59.726 19.4 223 -3.7 102050 79
2002-12-11 08:58:38 51°20.761 2°59.758 19.9 224 -3.7 102050 79
2002-12-11 08:58:44 51°20.767 2°59.79 17.7 221 -3.7 102050 79
2002-12-11 08:58:48 51°20.772 2°59.812 19.9 218 -3.8 102040 78
2002-12-11 08:58:53 51°20.777 2°59.838 20.5 223 -3.8 102040 78
2002-12-11 08:58:57 51°20.782 2°59.859 18.6 220 -3.8 102040 77
2002-12-11 08:59:02 51°20.787 2°59.886 18.6 226 -3.8 102040 77
2002-12-11 08:59:08 51°20.794 2°59.917 20.5 226 -3.8 102060 78
2002-12-11 08:59:13 51°20.799 2°59.944 20.5 228 -3.8 102060 78
2002-12-11 08:59:18 51°20.805 2°59.971 20.7 233 -3.7 102060 79
2002-12-11 08:59:23 51°20.811 2°59.997 21 222 -3.7 102060 79
2002-12-11 08:59:28 51°20.815 3°0.024 19.1 227 -3.6 102080 79
2002-12-11 08:59:34 51°20.822 3°0.056 20.8 228 -3.6 102080 79
2002-12-11 08:59:38 51°20.826 3°0.077 20.8 230 -3.6 102070 79
2002-12-11 08:59:43 51°20.832 3°0.104 21.4 229 -3.6 102070 79
2002-12-11 08:59:48 51°20.837 3°0.13 21.8 229 -3.6 102050 79
2002-12-11 08:59:53 51°20.842 3°0.157 20 220 -3.6 102050 79
2002-12-11 08:59:56 51°20.845 3°0.173 20.8 217 -3.7 102050 78
2002-12-11 09:00:04 51°20.854 3°0.216 20.5 221 -3.7 102050 78
2002-12-11 09:00:08 51°20.858 3°0.237 18.9 218 -3.7 102060 78
2002-12-11 09:00:13 51°20.862 3°0.264 19.7 219 -3.7 102060 78
2002-12-11 09:00:18 51°20.868 3°0.29 18.6 219 -3.7 102060 78
2002-12-11 09:00:23 51°20.874 3°0.316 18.1 221 -3.7 102060 78
2002-12-11 09:00:28 51°20.879 3°0.342 18.6 217 -3.7 102040 78
2002-12-11 09:00:33 51°20.885 3°0.368 20.1 218 -3.7 102040 78
2002-12-11 09:00:38 51°20.89 3°0.394 19.4 222 -3.7 102030 78
2002-12-11 09:00:43 51°20.895 3°0.42 18.5 226 -3.7 102030 78
2002-12-11 09:00:48 51°20.901 3°0.447 18.3 225 -3.7 102050 77
2002-12-11 09:00:53 51°20.907 3°0.474 19.9 230 -3.7 102050 77
2002-12-11 09:00:56 51°20.91 3°0.49 19.7 234 -3.8 102050 77
2002-12-11 09:01:04 51°20.918 3°0.533 19.9 226 -3.8 102050 77
2002-12-11 09:01:08 51°20.923 3°0.554 20.2 225 -3.7 102050 78
2002-12-11 09:01:12 51°20.927 3°0.575 21.6 226 -3.7 102050 78
2002-12-11 09:01:18 51°20.934 3°0.607 22.9 229 -3.7 102070 78
2002-12-11 09:01:23 51°20.939 3°0.634 21.5 228 -3.7 102070 78
2002-12-11 09:01:28 51°20.944 3°0.66 20.1 225 -3.7 102060 78
2002-12-11 09:01:33 51°20.95 3°0.687 20 227 -3.7 102060 78
2002-12-11 09:01:38 51°20.955 3°0.714 19.5 229 -3.7 102060 77
2002-12-11 09:01:42 51°20.959 3°0.735 20.2 227 -3.7 102060 77
2002-12-11 09:01:48 51°20.965 3°0.767 20.3 228 -3.7 102070 77
2002-12-11 09:01:52 51°20.97 3°0.788 20.7 230 -3.7 102070 77
2002-12-11 09:01:58 51°20.977 3°0.82 20.1 227 -3.7 102070 77
2002-12-11 09:02:04 51°20.983 3°0.852 19.6 228 -3.7 102070 77
2002-12-11 09:02:08 51°20.988 3°0.873 18 225 -3.8 102070 77
2002-12-11 09:02:13 51°20.992 3°0.899 17.5 225 -3.8 102070 77
2002-12-11 09:02:18 51°20.998 3°0.926 19 222 -3.8 102060 76
2002-12-11 09:02:24 51°21.005 3°0.957 18.2 222 -3.8 102060 76
2002-12-11 09:02:28 51°21.01 3°0.978 19 219 -3.8 102080 76
2002-12-11 09:02:33 51°21.015 3°1.004 18.9 220 -3.8 102080 76
2002-12-11 09:02:38 51°21.021 3°1.031 18.7 223 -3.8 102050 77
2002-12-11 09:02:43 51°21.027 3°1.057 16.9 227 -3.8 102050 77
2002-12-11 09:02:48 51°21.033 3°1.084 18.3 224 -3.8 102080 77
2002-12-11 09:02:52 51°21.037 3°1.106 18.9 226 -3.8 102080 77
2002-12-11 09:02:58 51°21.042 3°1.137 18.9 222 -3.8 102070 77
2002-12-11 09:03:03 51°21.048 3°1.163 17.8 223 -3.8 102070 77
2002-12-11 09:03:08 51°21.054 3°1.189 19.2 225 -3.8 102080 77
2002-12-11 09:03:12 51°21.058 3°1.21 18.9 226 -3.8 102080 77
2002-12-11 09:03:18 51°21.064 3°1.242 19.1 230 -3.8 102080 77
2002-12-11 09:03:22 51°21.069 3°1.263 19.7 224 -3.8 102080 77
2002-12-11 09:03:28 51°21.074 3°1.295 20.5 226 -3.8 102070 77
2002-12-11 09:03:33 51°21.081 3°1.32 20 221 -3.8 102070 77
2002-12-11 09:03:38 51°21.086 3°1.348 18.3 220 -3.8 102090 77
2002-12-11 09:03:42 51°21.091 3°1.369 17.5 220 -3.8 102090 77
2002-12-11 09:03:48 51°21.097 3°1.401 16.8 219 -3.8 102080 77
2002-12-11 09:03:53 51°21.103 3°1.427 18.7 220 -3.8 102080 77
2002-12-11 09:03:58 51°21.108 3°1.454 19 226 -3.8 102070 77
2002-12-11 09:04:04 51°21.115 3°1.486 19.3 222 -3.8 102070 77
2002-12-11 09:04:08 51°21.119 3°1.507 20 224 -3.7 102060 77
2002-12-11 09:04:13 51°21.125 3°1.533 18.3 220 -3.7 102060 77
2002-12-11 09:04:16 51°21.128 3°1.549 19.9 222 -3.7 102090 78
2002-12-11 09:04:24 51°21.136 3°1.592 19.7 222 -3.7 102090 78
2002-12-11 09:04:28 51°21.141 3°1.612 18.2 224 -3.6 102080 79
2002-12-11 09:04:33 51°21.146 3°1.639 20.4 221 -3.6 102080 79
2002-12-11 09:04:37 51°21.15 3°1.66 20.3 219 -3.6 102080 79
2002-12-11 09:04:43 51°21.157 3°1.692 21.6 223 -3.6 102080 79
2002-12-11 09:04:48 51°21.163 3°1.718 20.9 219 -3.6 102060 78
2002-12-11 09:04:52 51°21.167 3°1.739 21.2 223 -3.6 102060 78
2002-12-11 09:04:58 51°21.174 3°1.77 21.6 222 -3.6 102070 78
2002-12-11 09:05:04 51°21.18 3°1.802 21 222 -3.6 102070 78
2002-12-11 09:05:08 51°21.184 3°1.823 19.8 223 -3.6 102060 77
2002-12-11 09:05:13 51°21.19 3°1.85 19.5 223 -3.6 102060 77
2002-12-11 09:05:18 51°21.195 3°1.876 21 222 -3.7 102050 77
2002-12-11 09:05:24 51°21.201 3°1.907 20.1 221 -3.7 102050 77
2002-12-11 09:05:28 51°21.205 3°1.929 20.3 225 -3.7 102070 77
2002-12-11 09:05:33 51°21.212 3°1.955 22.1 222 -3.7 102070 77
2002-12-11 09:05:38 51°21.217 3°1.981 20.6 223 -3.7 102060 77
2002-12-11 09:05:42 51°21.221 3°2.002 21.2 225 -3.7 102060 77
2002-12-11 09:05:48 51°21.228 3°2.033 21.6 218 -3.7 102060 77
2002-12-11 09:05:52 51°21.231 3°2.055 19.4 225 -3.7 102060 77
2002-12-11 09:05:58 51°21.238 3°2.086 19 224 -3.7 102060 77
2002-12-11 09:06:04 51°21.244 3°2.117 18.9 219 -3.7 102060 77
2002-12-11 09:06:08 51°21.248 3°2.138 19.7 223 -3.7 102060 77
2002-12-11 09:06:13 51°21.255 3°2.164 20.5 223 -3.7 102060 77
2002-12-11 09:06:18 51°21.26 3°2.19 19.5 221 -3.6 102060 77
2002-12-11 09:06:24 51°21.267 3°2.221 20 218 -3.6 102060 77
2002-12-11 09:06:28 51°21.27 3°2.243 20 224 -3.6 102060 77
2002-12-11 09:06:33 51°21.276 3°2.268 20.1 224 -3.6 102060 77
2002-12-11 09:06:38 51°21.282 3°2.295 20.1 221 -3.6 102070 77
2002-12-11 09:06:44 51°21.289 3°2.326 19.9 222 -3.6 102070 77
2002-12-11 09:06:48 51°21.293 3°2.347 20.8 224 -3.7 102060 77
2002-12-11 09:06:52 51°21.297 3°2.368 20.8 220 -3.7 102060 77
2002-12-11 09:06:58 51°21.303 3°2.399 19.8 221 -3.5 102070 76
2002-12-11 09:07:02 51°21.308 3°2.42 19.2 220 -3.5 102070 76
2002-12-11 09:07:08 51°21.315 3°2.452 17.8 222 -3.7 102070 76
2002-12-11 09:07:13 51°21.321 3°2.478 19 223 -3.7 102070 76
2002-12-11 09:07:18 51°21.326 3°2.504 19.4 225 -3.7 102060 76
2002-12-11 09:07:24 51°21.333 3°2.535 18.8 225 -3.7 102060 76
2002-12-11 09:07:28 51°21.337 3°2.556 17.6 222 -3.7 102050 76
2002-12-11 09:07:32 51°21.341 3°2.577 18.2 217 -3.7 102050 76
2002-12-11 09:07:38 51°21.347 3°2.609 19.1 217 -3.7 102090 76
2002-12-11 09:07:44 51°21.353 3°2.64 18.5 217 -3.7 102090 76
2002-12-11 09:07:48 51°21.358 3°2.661 18.1 221 -3.7 102080 77
2002-12-11 09:07:53 51°21.363 3°2.686 18.7 219 -3.7 102080 77
2002-12-11 09:07:58 51°21.368 3°2.712 19 224 -3.7 102070 77
2002-12-11 09:08:04 51°21.375 3°2.744 18.6 226 -3.7 102070 77
2002-12-11 09:08:08 51°21.38 3°2.765 19.8 222 -3.6 102060 77
2002-12-11 09:08:12 51°21.384 3°2.786 17.7 223 -3.6 102060 77
2002-12-11 09:08:18 51°21.39 3°2.818 18.7 217 -3.6 102070 78
2002-12-11 09:08:23 51°21.396 3°2.844 18 220 -3.6 102070 78
2002-12-11 09:08:28 51°21.401 3°2.87 18.6 221 -3.6 102070 78
2002-12-11 09:08:32 51°21.405 3°2.891 17.6 223 -3.6 102070 78
2002-12-11 09:08:38 51°21.412 3°2.922 16.8 227 -3.6 102070 78
2002-12-11 09:08:42 51°21.416 3°2.943 17.6 221 -3.6 102070 78
2002-12-11 09:08:48 51°21.423 3°2.974 17.7 226 -3.6 102080 77
2002-12-11 09:08:52 51°21.427 3°2.995 16.5 226 -3.6 102080 77
2002-12-11 09:08:58 51°21.434 3°3.027 19.3 220 -3.5 102080 78
2002-12-11 09:09:02 51°21.438 3°3.048 19 223 -3.5 102080 78
2002-12-11 09:09:08 51°21.445 3°3.08 19.2 223 -3.5 102090 78
2002-12-11 09:09:13 51°21.45 3°3.106 17.9 221 -3.5 102090 78
2002-12-11 09:09:18 51°21.456 3°3.132 18.5 222 -3.4 102080 79
2002-12-11 09:09:22 51°21.46 3°3.154 21.1 221 -3.4 102080 79
2002-12-11 09:09:28 51°21.467 3°3.185 20.3 218 -3.4 102080 79
2002-12-11 09:09:32 51°21.471 3°3.207 20.2 223 -3.4 102080 79
2002-12-11 09:09:38 51°21.478 3°3.238 16.8 226 -3.4 102070 78
2002-12-11 09:09:43 51°21.483 3°3.265 18.7 221 -3.4 102070 78
2002-12-11 09:09:48 51°21.488 3°3.291 18.1 224 -3.5 102070 78
2002-12-11 09:09:53 51°21.494 3°3.318 19.1 227 -3.5 102070 78
2002-12-11 09:09:58 51°21.499 3°3.344 18.8 229 -3.5 102050 77
2002-12-11 09:10:02 51°21.504 3°3.366 19.8 223 -3.5 102050 77
2002-12-11 09:10:08 51°21.51 3°3.398 19.7 228 -3.5 102080 77
2002-12-11 09:10:13 51°21.516 3°3.424 21.2 219 -3.5 102080 77
2002-12-11 09:10:18 51°21.521 3°3.45 19.8 217 -3.5 102080 78
2002-12-11 09:10:24 51°21.528 3°3.483 20.9 219 -3.5 102080 78
2002-12-11 09:10:28 51°21.532 3°3.504 18.9 219 -3.5 102080 78
2002-12-11 09:10:32 51°21.537 3°3.525 18.6 223 -3.5 102080 78
2002-12-11 09:10:38 51°21.543 3°3.557 18.5 219 -3.5 102070 78
2002-12-11 09:10:43 51°21.549 3°3.582 19.2 225 -3.5 102070 78
2002-12-11 09:10:48 51°21.554 3°3.609 19.3 225 -3.5 102060 77
2002-12-11 09:10:52 51°21.559 3°3.63 19.1 226 -3.5 102060 77
2002-12-11 09:10:58 51°21.566 3°3.662 20.9 225 -3.5 102080 77
2002-12-11 09:11:04 51°21.572 3°3.694 21.5 226 -3.5 102080 77
2002-12-11 09:11:08 51°21.577 3°3.715 21 229 -3.5 102080 78
2002-12-11 09:11:13 51°21.582 3°3.741 18.9 229 -3.5 102080 78
2002-12-11 09:11:18 51°21.588 3°3.768 19.7 135 -3.4 102060 78
2002-12-11 09:11:22 51°21.592 3°3.789 20.8 228 -3.4 102060 78
2002-12-11 09:11:28 51°21.599 3°3.821 19.7 224 -3.5 102060 78
2002-12-11 09:11:32 51°21.603 3°3.842 18.7 227 -3.5 102060 78
2002-12-11 09:11:38 51°21.61 3°3.874 17.9 224 -3.5 102080 77
2002-12-11 09:11:43 51°21.615 3°3.9 21.2 225 -3.5 102080 77
2002-12-11 09:11:48 51°21.62 3°3.926 18.9 223 -3.5 102070 77
2002-12-11 09:11:53 51°21.626 3°3.953 19.4 221 -3.5 102070 77
2002-12-11 09:11:56 51°21.629 3°3.969 20 223 -3.5 102070 77
2002-12-11 09:12:03 51°21.636 3°4.007 19.3 222 -3.5 102070 77
2002-12-11 09:12:08 51°21.643 3°4.033 19.3 224 -3.5 102070 77
2002-12-11 09:12:12 51°21.646 3°4.054 21.1 223 -3.5 102070 77
2002-12-11 09:12:18 51°21.653 3°4.086 20 224 -3.5 102070 76
2002-12-11 09:12:24 51°21.659 3°4.117 19.9 222 -3.5 102070 76
2002-12-11 09:12:28 51°21.664 3°4.139 18.8 220 -3.5 102060 77
2002-12-11 09:12:33 51°21.669 3°4.165 20.2 222 -3.5 102060 77
2002-12-11 09:12:38 51°21.674 3°4.192 17.9 135 -3.5 102070 77
2002-12-11 09:12:43 51°21.68 3°4.218 19.6 317 -3.5 102070 77
2002-12-11 09:12:48 51°21.685 3°4.245 19.2 224 -3.5 102060 77
2002-12-11 09:12:53 51°21.691 3°4.272 18.9 224 -3.5 102060 77
2002-12-11 09:12:58 51°21.697 3°4.298 18.7 223 -3.5 102070 77
2002-12-11 09:13:03 51°21.702 3°4.325 18.1 221 -3.5 102070 77
2002-12-11 09:13:08 51°21.707 3°4.352 18.2 225 -3.5 102080 77
2002-12-11 09:13:13 51°21.713 3°4.378 18.7 223 -3.5 102080 77
2002-12-11 09:13:18 51°21.719 3°4.404 20.1 225 -3.5 102070 77
2002-12-11 09:13:23 51°21.724 3°4.431 19.5 223 -3.5 102070 77
2002-12-11 09:13:28 51°21.729 3°4.458 20.7 223 -3.5 102070 76
2002-12-11 09:13:32 51°21.733 3°4.479 18.6 227 -3.5 102070 76
2002-12-11 09:13:38 51°21.74 3°4.511 19.3 224 -3.5 102080 76
2002-12-11 09:13:42 51°21.744 3°4.532 20.2 224 -3.5 102080 76
2002-12-11 09:13:48 51°21.751 3°4.564 19.7 223 -3.5 102090 76
2002-12-11 09:13:53 51°21.756 3°4.591 18.3 224 -3.5 102090 76
2002-12-11 09:13:58 51°21.762 3°4.617 18.9 218 -3.5 102070 77
2002-12-11 09:14:04 51°21.768 3°4.649 19.9 225 -3.5 102070 77
2002-12-11 09:14:08 51°21.773 3°4.67 18.6 220 -3.4 102100 77
2002-12-11 09:14:13 51°21.778 3°4.697 17.3 222 -3.4 102100 77
2002-12-11 09:14:18 51°21.783 3°4.723 19 225 -3.5 102070 77
2002-12-11 09:14:23 51°21.789 3°4.749 20.3 225 -3.5 102070 77
2002-12-11 09:14:28 51°21.795 3°4.776 18.8 218 -3.5 102050 76
2002-12-11 09:14:33 51°21.8 3°4.802 18.9 219 -3.5 102050 76
2002-12-11 09:14:38 51°21.805 3°4.829 20.4 223 -3.5 102080 77
2002-12-11 09:14:42 51°21.81 3°4.85 19.8 221 -3.5 102080 77
2002-12-11 09:14:48 51°21.817 3°4.882 18.1 221 -3.5 102070 77
2002-12-11 09:14:53 51°21.822 3°4.908 17.3 220 -3.5 102070 77
2002-12-11 09:14:58 51°21.828 3°4.935 18.9 219 -3.5 102080 77
2002-12-11 09:15:02 51°21.833 3°4.956 18.9 223 -3.5 102080 77
2002-12-11 09:15:08 51°21.839 3°4.988 19.8 222 -3.5 102070 77
2002-12-11 09:15:12 51°21.844 3°5.009 19 223 -3.5 102070 77
2002-12-11 09:15:18 51°21.85 3°5.041 18.7 223 -3.5 102080 77
2002-12-11 09:15:24 51°21.856 3°5.073 20 222 -3.5 102080 77
2002-12-11 09:15:28 51°21.861 3°5.094 18.5 221 -3.5 102060 77
2002-12-11 09:15:33 51°21.866 3°5.12 20.1 216 -3.5 102060 77
2002-12-11 09:15:38 51°21.872 3°5.147 19.6 218 -3.5 102070 77
2002-12-11 09:15:44 51°21.878 3°5.178 20.3 220 -3.5 102070 77
2002-12-11 09:15:48 51°21.883 3°5.199 17.9 219 -3.5 102080 77
2002-12-11 09:15:52 51°21.887 3°5.22 19.7 220 -3.5 102080 77
2002-12-11 09:15:58 51°21.894 3°5.252 20.3 219 -3.5 102070 77
2002-12-11 09:16:04 51°21.9 3°5.284 18.8 219 -3.5 102070 77
2002-12-11 09:16:08 51°21.905 3°5.305 18.1 224 -3.4 102060 77
2002-12-11 09:16:13 51°21.911 3°5.331 19.8 223 -3.4 102060 77
2002-12-11 09:16:18 51°21.915 3°5.358 20.4 227 -3.4 102070 77
2002-12-11 09:16:23 51°21.921 3°5.385 19.4 224 -3.4 102070 77
2002-12-11 09:16:28 51°21.926 3°5.411 20.5 224 -3.5 102070 77
2002-12-11 09:16:32 51°21.931 3°5.432 18.6 225 -3.5 102070 77
2002-12-11 09:16:37 51°21.936 3°5.459 20.6 224 -3.5 102070 77
2002-12-11 09:16:44 51°21.944 3°5.496 20.8 223 -3.5 102070 77
2002-12-11 09:16:48 51°21.948 3°5.517 19 220 -3.4 102080 77
2002-12-11 09:16:53 51°21.954 3°5.543 18.9 222 -3.4 102080 77
2002-12-11 09:16:58 51°21.959 3°5.569 19.7 227 -3.4 102060 76
2002-12-11 09:17:03 51°21.965 3°5.596 22.6 224 -3.4 102060 76
2002-12-11 09:17:08 51°21.97 3°5.622 21.5 224 -3.4 102070 77
2002-12-11 09:17:12 51°21.974 3°5.643 20 222 -3.4 102070 77
2002-12-11 09:17:18 51°21.981 3°5.675 20.5 220 -3.5 102070 76
2002-12-11 09:17:24 51°21.987 3°5.706 19.4 219 -3.5 102070 76
2002-12-11 09:17:28 51°21.992 3°5.727 19.7 219 -3.5 102060 76
2002-12-11 09:17:32 51°21.996 3°5.748 19.9 219 -3.5 102060 76
2002-12-11 09:17:38 51°22.004 3°5.78 19.5 219 -3.5 102050 76
2002-12-11 09:17:44 51°22.009 3°5.812 18.7 222 -3.5 102050 76
2002-12-11 09:17:48 51°22.014 3°5.832 19.5 215 -3.5 102070 76